FW3681 Weather Reports


Display with metric or nautical units.
time (UTC)temp
F
wind
direction
speed
MPH
gust
MPH
rain 1hr
in
rain 24hr
in
rain mn
in
humidity
%
barometer
mb
20260502204802 70 300 5.0 8.0 0.00 2.28 1.19 55 1011.6
20260502204702 71 287 3.0 8.0 0.00 2.28 1.19 55 1011.7
20260502204602 71 300 5.0 8.0 0.00 2.28 1.19 55 1011.7
20260502204505 71 283 6.0 8.0 0.00 2.28 1.19 54 1011.7
20260502204402 71 300 4.0 8.0 0.00 2.28 1.19 54 1011.6
20260502204302 71 264 5.0 8.0 0.00 2.28 1.19 53 1011.7
20260502204102 71 1 7.0 8.0 0.00 2.28 1.19 53 1011.7
20260502204006 71 296 5.0 8.0 0.00 2.28 1.19 54 1011.7
20260502203900 71 330 4.0 8.0 0.00 2.28 1.19 54 1011.7
20260502203801 72 311 5.0 8.0 0.00 2.28 1.19 54 1011.7
20260502203702 71 294 2.0 10.0 0.00 2.28 1.19 54 1011.6
20260502203601 72 288 3.0 10.0 0.00 2.28 1.19 53 1011.7
20260502203505 72 287 5.0 10.0 0.00 2.28 1.19 53 1011.7
20260502203403 72 300 6.0 10.0 0.00 2.28 1.19 53 1011.8
20260502203203 73 279 5.0 10.0 0.00 2.28 1.19 54 1011.6
20260502203101 73 262 6.0 10.0 0.00 2.28 1.19 54 1011.7
20260502203005 72 286 4.0 10.0 0.00 2.28 1.19 54 1011.7
20260502202802 72 314 6.0 10.0 0.00 2.28 1.19 55 1011.8
20260502202702 72 316 6.0 7.0 0.00 2.28 1.19 56 1011.7
20260502202601 72 298 3.0 7.0 0.00 2.28 1.19 55 1011.8
20260502202505 71 303 2.0 7.0 0.00 2.28 1.19 55 1011.8
20260502202401 71 335 3.0 11.0 0.00 2.28 1.19 55 1011.8
20260502202301 71 291 4.0 11.0 0.00 2.28 1.19 56 1011.8
20260502202201 71 276 4.0 11.0 0.00 2.28 1.19 57 1011.9
20260502202102 71 321 5.0 11.0 0.00 2.28 1.19 57 1011.8
20260502201901 71 302 4.0 11.0 0.00 2.28 1.19 57 1011.9
20260502201802 71 295 4.0 11.0 0.00 2.28 1.19 58 1011.9
20260502201701 71 289 3.0 11.0 0.00 2.28 1.19 56 1011.9
20260502201602 71 273 6.0 11.0 0.00 2.28 1.19 55 1011.9
20260502201505 72 285 4.0 6.0 0.00 2.28 1.19 55 1011.9
20260502201402 72 300 6.0 6.0 0.00 2.28 1.19 57 1011.9
20260502201301 72 310 5.0 6.0 0.00 2.28 1.19 56 1011.9
20260502201202 72 300 5.0 6.0 0.00 2.28 1.19 55 1012.0
20260502201005 72 13 3.0 7.0 0.00 2.28 1.19 57 1012.0
20260502200902 72 317 3.0 7.0 0.00 2.28 1.19 58 1012.0
20260502200801 71 307 3.0 9.0 0.00 2.28 1.19 58 1012.0
20260502200701 71 288 3.0 9.0 0.00 2.28 1.19 58 1012.0
20260502200601 71 288 3.0 9.0 0.00 2.28 1.19 59 1012.0
20260502200505 71 308 2.0 9.0 0.00 2.28 1.19 57 1012.0
20260502200401 71 297 3.0 9.0 0.00 2.28 1.19 57 1012.0
20260502200201 71 316 2.0 9.0 0.00 2.28 1.19 55 1012.1
20260502200101 71 312 3.0 9.0 0.00 2.28 1.19 55 1012.2
20260502195901 71 293 3.0 8.0 0.00 2.28 1.19 57 1012.2
20260502195701 71 319 5.0 8.0 0.00 2.28 1.19 57 1012.2
20260502195603 71 317 3.0 8.0 0.00 2.28 1.19 56 1012.3
20260502195506 71 282 2.0 8.0 0.00 2.28 1.19 58 1012.3
20260502195304 71 323 5.0 8.0 0.00 2.28 1.19 58 1012.2
20260502195202 71 293 5.0 8.0 0.00 2.28 1.19 59 1012.1
20260502195005 70 15 7.0 8.0 0.00 2.28 1.19 59 1012.2
20260502194902 70 317 5.0 6.0 0.00 2.28 1.19 62 1012.2
20260502194801 69 247 3.0 7.0 0.00 2.28 1.19 62 1012.2
20260502194700 69 321 2.0 7.0 0.00 2.28 1.19 61 1012.2
20260502194505 69 303 3.0 7.0 0.00 2.28 1.19 61 1012.3
20260502194401 69 314 4.0 7.0 0.00 2.28 1.19 62 1012.3
20260502194302 69 300 3.0 7.0 0.00 2.28 1.19 62 1012.3
20260502194201 68 275 4.0 7.0 0.00 2.28 1.19 62 1012.3
20260502194102 68 288 4.0 7.0 0.00 2.28 1.19 61 1012.3
20260502194005 68 321 2.0 7.0 0.00 2.28 1.19 61 1012.3
20260502193802 69 314 4.0 7.0 0.00 2.28 1.19 61 1012.4
20260502193701 69 296 6.0 8.0 0.00 2.28 1.19 61 1012.3
20260502193601 69 314 4.0 8.0 0.00 2.28 1.19 61 1012.3
20260502193504 69 308 6.0 8.0 0.00 2.28 1.19 61 1012.3
20260502193301 70 282 4.0 8.0 0.00 2.28 1.19 60 1012.3
20260502193202 70 289 6.0 8.0 0.00 2.28 1.19 59 1012.3
20260502193102 70 288 4.0 8.0 0.00 2.28 1.19 58 1012.3
20260502193005 71 305 4.0 8.0 0.00 2.28 1.19 57 1012.3
20260502192903 71 295 5.0 8.0 0.00 2.28 1.19 59 1012.3
20260502192802 71 286 6.0 8.0 0.00 2.28 1.19 60 1012.2
20260502192601 71 335 2.0 9.0 0.00 2.28 1.19 60 1012.3
20260502192505 70 271 3.0 9.0 0.00 2.28 1.19 59 1012.3
20260502192401 70 312 2.0 9.0 0.00 2.28 1.19 59 1012.3
20260502192304 70 340 3.0 9.0 0.00 2.28 1.19 59 1012.3
20260502192201 70 326 2.0 9.0 0.00 2.28 1.19 60 1012.2
20260502192101 70 328 0.0 9.0 0.00 2.28 1.19 59 1012.3
20260502191901 71 296 3.0 9.0 0.00 2.28 1.19 58 1012.3
20260502191801 71 281 5.0 9.0 0.00 2.28 1.19 57 1012.2
20260502191701 71 340 1.0 8.0 0.00 2.28 1.19 58 1012.3
20260502191602 71 6 7.0 8.0 0.00 2.28 1.19 59 1012.2
20260502191505 71 311 4.0 8.0 0.00 2.28 1.19 60 1012.1
20260502191402 71 316 4.0 8.0 0.00 2.28 1.19 59 1012.2
20260502191201 71 352 4.0 8.0 0.00 2.28 1.19 58 1012.1
20260502191103 71 19 1.0 8.0 0.00 2.28 1.19 60 1012.1
20260502191006 71 4 2.0 8.0 0.00 2.28 1.19 58 1012.1
20260502190903 70 309 4.0 8.0 0.00 2.28 1.19 60 1012.1
20260502190801 70 260 4.0 8.0 0.00 2.28 1.19 59 1012.2
20260502190700 70 360 3.0 8.0 0.00 2.28 1.19 59 1012.3
20260502190602 70 354 8.0 8.0 0.00 2.28 1.19 61 1012.3
20260502190505 70 330 2.0 8.0 0.00 2.28 1.19 60 1012.3
20260502190402 71 289 4.0 8.0 0.00 2.28 1.19 61 1012.3
20260502190302 70 280 3.0 8.0 0.00 2.28 1.19 63 1012.3
20260502190201 70 304 3.0 8.0 0.00 2.28 1.19 61 1012.4
20260502185902 69 286 4.0 7.0 0.00 2.28 1.19 61 1012.4
20260502185802 70 275 3.0 7.0 0.00 2.28 1.19 61 1012.4
20260502185701 69 305 2.0 7.0 0.00 2.28 1.19 62 1012.3
20260502185602 69 268 7.0 7.0 0.00 2.28 1.19 63 1012.4
20260502185504 69 340 4.0 7.0 0.00 2.28 1.19 63 1012.4
20260502185400 69 314 4.0 9.0 0.00 2.28 1.19 65 1012.3
20260502185100 68 298 5.0 9.0 0.00 2.28 1.19 65 1012.4
20260502185006 68 296 6.0 9.0 0.00 2.28 1.19 64 1012.4
20260502184801 68 281 6.0 9.0 0.00 2.28 1.19 63 1012.4
20260502184702 68 272 4.0 9.0 0.00 2.28 1.19 62 1012.3
20260502184602 68 278 6.0 9.0 0.00 2.28 1.19 63 1012.3
20260502184401 69 300 6.0 9.0 0.00 2.28 1.19 63 1012.3
20260502184303 69 301 6.0 9.0 0.00 2.28 1.19 64 1012.3
20260502184202 69 255 5.0 9.0 0.00 2.28 1.19 63 1012.3
20260502184101 69 314 2.0 9.0 0.00 2.28 1.19 63 1012.3
20260502184005 69 300 1.0 9.0 0.00 2.28 1.19 62 1012.3
20260502183901 69 303 3.0 9.0 0.00 2.28 1.19 64 1012.3
20260502183801 69 301 3.0 9.0 0.00 2.28 1.19 63 1012.2
20260502183701 69 238 4.0 9.0 0.00 2.28 1.19 65 1012.2
20260502183601 69 282 4.0 10.0 0.00 2.28 1.19 64 1012.3
20260502183504 69 294 3.0 10.0 0.00 2.28 1.19 63 1012.3
20260502183401 68 284 3.0 10.0 0.00 2.28 1.19 63 1012.3
20260502183302 69 281 5.0 10.0 0.00 2.28 1.19 63 1012.4
20260502183202 69 269 5.0 10.0 0.00 2.28 1.19 63 1012.3
20260502183101 69 310 4.0 10.0 0.00 2.28 1.19 63 1012.3
20260502183008 69 291 3.0 10.0 0.00 2.28 1.19 64 1012.3
20260502182901 69 250 3.0 10.0 0.00 2.28 1.19 63 1012.3
20260502182801 69 276 5.0 10.0 0.00 2.28 1.19 64 1012.3
20260502182701 69 335 6.0 8.0 0.00 2.28 1.19 65 1012.3
20260502182600 69 356 3.0 8.0 0.00 2.28 1.19 66 1012.3
20260502182505 68 347 5.0 8.0 0.00 2.28 1.19 66 1012.3
20260502182402 68 284 3.0 8.0 0.00 2.28 1.19 66 1012.3
20260502182301 68 284 1.0 8.0 0.00 2.28 1.19 65 1012.3
20260502182203 68 323 3.0 8.0 0.00 2.28 1.19 67 1012.3
20260502182102 68 297 6.0 8.0 0.00 2.28 1.19 67 1012.3
20260502181902 68 342 3.0 6.0 0.00 2.28 1.19 69 1012.3
20260502181801 68 281 3.0 7.0 0.00 2.28 1.19 69 1012.4
20260502181602 67 295 3.0 7.0 0.00 2.28 1.19 69 1012.4
20260502181505 67 293 3.0 7.0 0.00 2.28 1.19 69 1012.4
20260502181401 67 298 4.0 7.0 0.00 2.28 1.19 70 1012.5
20260502181301 67 3 4.0 7.0 0.00 2.28 1.19 69 1012.4
20260502181101 66 1 6.0 7.0 0.00 2.28 1.19 69 1012.5
20260502181005 66 316 4.0 7.0 0.00 2.28 1.19 69 1012.3
20260502180901 66 300 7.0 7.0 0.00 2.28 1.19 71 1012.4
20260502180701 66 305 2.0 5.0 0.00 2.28 1.19 73 1012.4
20260502180601 66 335 3.0 4.0 0.00 2.28 1.19 76 1012.5
20260502180504 65 6 3.0 4.0 0.00 2.28 1.19 75 1012.5
20260502180402 64 279 2.0 4.0 0.00 2.28 1.19 74 1012.6
20260502180302 64 283 2.0 5.0 0.00 2.28 1.19 76 1012.5
20260502180201 64 309 3.0 6.0 0.00 2.28 1.19 76 1012.6
20260502170505 62 293 2.0 7.0 0.00 2.28 1.19 82 1012.6
20260502170401 61 346 1.0 7.0 0.00 2.28 1.19 82 1012.6
20260502170201 61 108 0.0 7.0 0.00 2.28 1.19 82 1012.6
20260502164301 60 279 3.0 6.0 0.00 2.32 1.19 88 1012.5
20260502164200 60 242 0.0 6.0 0.00 2.32 1.19 87 1012.5
20260502164101 60 345 2.0 6.0 0.00 2.32 1.19 88 1012.6
20260502163902 60 284 3.0 6.0 0.00 2.32 1.19 89 1012.6
20260502163701 60 61 0.0 6.0 0.00 2.32 1.19 89 1012.7
20260502163601 60 283 3.0 6.0 0.00 2.32 1.19 90 1012.7
20260502163505 60 169 4.0 4.0 0.00 2.32 1.19 90 1012.8
20260502163400 59 306 0.0 3.0 0.00 2.32 1.19 90 1012.8
20260502163201 59 270 0.0 3.0 0.00 2.32 1.19 90 1012.9
20260502163100 59 286 1.0 5.0 0.00 2.32 1.19 90 1013.0
20260502163006 59 197 1.0 5.0 0.00 2.32 1.19 90 1013.0
20260502162900 59 253 0.0 5.0 0.00 2.32 1.19 91 1013.1
20260502162800 59 195 0.0 5.0 0.00 2.32 1.19 91 1013.1
20260502162600 59 199 2.0 5.0 0.00 2.32 1.19 90 1013.2
20260502162505 58 262 0.0 5.0 0.00 2.32 1.19 91 1013.2
20260502162400 58 194 2.0 5.0 0.00 2.32 1.19 90 1013.3
20260502162300 58 216 3.0 5.0 0.00 2.32 1.19 91 1013.3
20260502162200 58 252 2.0 5.0 0.00 2.32 1.19 91 1013.3
20260502162101 58 211 0.0 5.0 0.00 2.32 1.19 91 1013.3
20260502161901 58 237 2.0 4.0 0.00 2.32 1.19 91 1013.2
20260502161659 58 241 3.0 4.0 0.00 2.32 1.19 91 1013.2
20260502161601 58 256 2.0 4.0 0.00 2.32 1.19 91 1013.1
20260502161505 58 232 2.0 4.0 0.00 2.32 1.19 91 1013.1
20260502161401 58 224 2.0 4.0 0.00 2.32 1.19 91 1013.1
20260502161300 58 205 2.0 4.0 0.00 2.32 1.19 91 1013.0
20260502161200 58 269 3.0 4.0 0.00 2.32 1.19 92 1013.1
20260502161101 58 316 1.0 4.0 0.00 2.32 1.19 93 1013.0
20260502161005 58 228 3.0 4.0 0.00 2.32 1.19 93 1013.0
20260502160801 58 210 3.0 4.0 0.00 2.32 1.19 93 1013.0
20260502160701 58 235 0.0 4.0 0.00 2.32 1.19 93 1012.9
20260502160601 58 201 3.0 4.0 0.00 2.32 1.19 93 1013.0
20260502160505 58 227 2.0 4.0 0.00 2.32 1.19 93 1013.0
20260502160401 57 240 0.0 4.0 0.00 2.32 1.19 93 1013.1
20260502160300 57 239 2.0 4.0 0.00 2.32 1.19 93 1013.1
20260502152301 56 262 2.0 4.0 0.01 2.38 1.19 95 1012.9
20260502152159 56 269 1.0 4.0 0.01 2.38 1.19 95 1013.0
20260502152101 56 190 2.0 4.0 0.01 2.38 1.19 95 1013.1
20260502152007 56 226 0.0 4.0 0.01 2.38 1.19 95 1013.1
20260502151900 56 94 0.0 4.0 0.01 2.38 1.19 95 1013.2
20260502151800 56 229 3.0 4.0 0.01 2.38 1.19 95 1013.2
20260502151600 56 231 0.0 4.0 0.01 2.38 1.19 95 1013.1
20260502151400 56 232 3.0 5.0 0.01 2.38 1.19 95 1013.0
20260502151300 56 6 1.0 5.0 0.01 2.38 1.19 95 1013.0
20260502151100 56 226 1.0 5.0 0.01 2.38 1.19 95 1013.0
20260502151005 56 234 1.0 5.0 0.01 2.38 1.19 95 1013.0
20260502150900 56 258 3.0 5.0 0.01 2.38 1.19 95 1013.0
20260502150800 56 263 3.0 5.0 0.01 2.38 1.19 95 1013.1
20260502150504 56 242 3.0 4.0 0.01 2.38 1.19 95 1013.1
20260502150400 56 236 3.0 4.0 0.02 2.38 1.19 95 1013.1
20260502150301 56 300 3.0 4.0 0.02 2.38 1.19 95 1013.1
20260502130600 54 262 2.0 5.0 0.05 2.35 1.16 95 1011.8
20260502130504 54 294 2.0 5.0 0.05 2.35 1.16 95 1011.8
20260502130400 54 295 3.0 5.0 0.05 2.35 1.16 95 1011.8
20260502130300 54 255 3.0 5.0 0.05 2.35 1.16 95 1011.8
20260502130200 54 236 4.0 5.0 0.05 2.35 1.16 95 1011.8
20260502123801 53 259 3.0 4.0 0.05 2.33 1.12 95 1012.2
20260502123700 53 252 3.0 4.0 0.05 2.33 1.12 95 1012.2
20260502123601 53 276 3.0 4.0 0.05 2.33 1.12 95 1012.3
20260502123505 53 294 4.0 4.0 0.05 2.33 1.12 95 1012.3
20260502123400 53 276 4.0 4.0 0.06 2.33 1.12 95 1012.4
20260502123301 53 251 2.0 4.0 0.06 2.33 1.12 95 1012.2
20260502123201 53 281 2.0 4.0 0.06 2.33 1.12 95 1012.1
20260502123100 53 263 3.0 4.0 0.06 2.33 1.12 95 1012.0
20260502123008 53 271 4.0 4.0 0.06 2.33 1.12 95 1012.0
20260502122900 53 241 3.0 4.0 0.06 2.33 1.12 95 1011.7
20260502122800 53 250 3.0 4.0 0.06 2.33 1.12 95 1011.6
20260502122701 53 218 1.0 4.0 0.06 2.33 1.12 95 1011.6
20260502122601 53 262 4.0 4.0 0.06 2.33 1.12 95 1011.5
20260502122505 53 34 0.0 4.0 0.06 2.33 1.12 95 1011.5
20260502122300 53 211 1.0 4.0 0.06 2.33 1.12 95 1011.2
20260502122200 53 239 2.0 4.0 0.06 2.33 1.12 95 1011.2
20260502122100 53 321 3.0 4.0 0.06 2.33 1.12 95 1011.2
20260502122005 53 271 2.0 4.0 0.06 2.33 1.12 95 1011.2
20260502121900 53 223 2.0 4.0 0.06 2.33 1.12 95 1011.1
20260502121600 53 356 0.0 6.0 0.06 2.33 1.12 95 1011.1
20260502121505 53 227 2.0 6.0 0.06 2.33 1.12 95 1011.1
20260502121200 53 257 3.0 6.0 0.06 2.32 1.11 95 1011.2
20260502121059 53 236 0.0 6.0 0.06 2.32 1.11 95 1011.2
20260502121005 53 236 1.0 6.0 0.06 2.32 1.11 95 1011.2
20260502120800 53 269 3.0 4.0 0.07 2.32 1.11 95 1011.5
20260502120600 53 244 0.0 6.0 0.08 2.32 1.11 95 1011.4
20260502120504 53 255 2.0 6.0 0.08 2.32 1.11 95 1011.4
20260502120402 53 245 1.0 6.0 0.09 2.32 1.11 95 1011.7
20260502120200 53 243 2.0 6.0 0.11 2.32 1.11 95 1011.9
20260502115901 53 242 3.0 6.0 0.12 2.33 1.11 95 1011.8
20260502115800 53 211 6.0 6.0 0.13 2.33 1.11 95 1011.7
20260502115700 53 257 0.0 6.0 0.13 2.33 1.11 95 1011.5
20260502115600 53 241 4.0 6.0 0.14 2.33 1.11 95 1011.4
20260502115504 53 226 3.0 4.0 0.13 2.32 1.10 95 1011.4
20260502115305 53 252 3.0 4.0 0.14 2.32 1.10 95 1011.2
20260502115200 53 260 3.0 4.0 0.15 2.32 1.10 95 1011.4
20260502115005 53 245 2.0 4.0 0.14 2.31 1.09 95 1011.4
20260502114900 53 231 0.0 4.0 0.15 2.31 1.09 95 1011.6
20260502114700 53 266 1.0 4.0 0.14 2.30 1.08 95 1012.0
20260502114400 53 298 2.0 4.0 0.14 2.30 1.08 95 1012.3
20260502114201 53 323 2.0 4.0 0.14 2.30 1.08 95 1012.7
20260502114100 53 232 1.0 4.0 0.14 2.30 1.08 95 1012.8
20260502114005 53 206 2.0 4.0 0.13 2.29 1.07 95 1012.8
20260502113900 53 229 2.0 4.0 0.14 2.29 1.07 95 1012.7
20260502113801 53 242 2.0 4.0 0.14 2.29 1.07 95 1012.5
20260502113601 53 293 3.0 4.0 0.14 2.29 1.07 95 1012.0
20260502113504 53 264 3.0 4.0 0.14 2.29 1.07 95 1012.0
20260502113400 53 250 2.0 5.0 0.13 2.28 1.06 95 1011.7
20260502113300 53 318 3.0 5.0 0.13 2.28 1.06 95 1011.5
20260502113200 53 266 0.0 5.0 0.13 2.28 1.06 95 1011.4
20260502113100 53 271 2.0 5.0 0.13 2.28 1.06 95 1011.3
20260502113005 53 240 0.0 5.0 0.13 2.28 1.06 95 1011.3
20260502112900 53 274 0.0 5.0 0.14 2.28 1.06 95 1011.4
20260502112800 53 242 0.0 5.0 0.14 2.28 1.06 95 1011.5
20260502112700 53 283 2.0 5.0 0.14 2.28 1.06 95 1011.6
20260502112600 53 264 3.0 5.0 0.15 2.28 1.06 95 1011.6
20260502112504 53 250 0.0 5.0 0.15 2.28 1.06 95 1011.4
20260502112401 53 233 3.0 4.0 0.15 2.28 1.06 95 1011.4
20260502112259 53 302 3.0 4.0 0.16 2.28 1.06 95 1011.3
20260502112200 53 234 2.0 4.0 0.16 2.28 1.06 95 1011.4
20260502112100 53 315 0.0 4.0 0.16 2.28 1.06 95 1011.4
20260502112005 53 243 0.0 6.0 0.16 2.28 1.06 95 1011.4
20260502111859 53 264 2.0 6.0 0.17 2.28 1.06 95 1011.5
20260502111800 53 260 3.0 6.0 0.17 2.28 1.06 95 1011.6
20260502111700 53 285 2.0 6.0 0.18 2.28 1.06 95 1011.4
20260502111601 53 274 3.0 6.0 0.18 2.28 1.06 95 1011.2
20260502111505 53 294 0.0 6.0 0.18 2.28 1.06 95 1011.2
20260502111402 53 342 2.0 6.0 0.18 2.27 1.05 95 1011.3
20260502111200 53 274 2.0 6.0 0.19 2.27 1.05 95 1011.6
20260502110800 53 309 2.0 5.0 0.20 2.26 1.04 95 1011.7
20260502110700 53 262 3.0 5.0 0.20 2.25 1.03 95 1011.6
20260502110600 53 246 3.0 5.0 0.20 2.25 1.03 95 1011.5
20260502110504 53 255 3.0 5.0 0.19 2.24 1.02 95 1011.5
20260502110400 53 339 0.0 6.0 0.20 2.24 1.02 95 1011.6
20260502110300 53 255 0.0 6.0 0.20 2.23 1.01 95 1012.0
20260502110200 53 238 1.0 6.0 0.19 2.22 1.00 95 1012.2
20260502110100 53 311 0.0 6.0 0.19 2.21 0.99 95 1012.2
20260502110007 53 343 3.0 6.0 0.19 2.21 0.99 95 1012.2
20260502105901 53 336 0.0 6.0 0.20 2.21 0.99 95 1012.4
20260502105800 53 264 4.0 6.0 0.19 2.20 0.98 95 1012.4
20260502105700 53 238 3.0 6.0 0.19 2.20 0.98 95 1012.1
20260502105600 53 253 4.0 6.0 0.19 2.19 0.97 95 1011.6
20260502105505 53 237 4.0 5.0 0.19 2.19 0.97 95 1010.6
20260502105401 53 250 3.0 5.0 0.18 2.18 0.96 95 1009.9
20260502105301 53 57 0.0 5.0 0.18 2.18 0.96 95 1009.5
20260502105200 53 308 0.0 5.0 0.18 2.17 0.95 95 1009.8
20260502105100 53 213 0.0 5.0 0.19 2.17 0.95 95 1010.5
20260502105005 53 122 1.0 5.0 0.19 2.17 0.95 95 1010.5
20260502104700 53 336 3.0 5.0 0.19 2.16 0.94 95 1011.7
20260502104600 53 240 4.0 5.0 0.20 2.16 0.94 95 1011.6
20260502104505 53 276 1.0 5.0 0.20 2.16 0.94 95 1011.6
20260502104400 53 258 3.0 5.0 0.20 2.16 0.94 95 1011.3
20260502104300 53 274 2.0 5.0 0.21 2.16 0.94 95 1011.2
20260502104200 53 262 3.0 6.0 0.21 2.16 0.94 95 1011.2
20260502104059 53 320 3.0 6.0 0.22 2.16 0.94 95 1011.2
20260502103859 53 285 3.0 6.0 0.21 2.15 0.93 95 1011.1
20260502103800 53 264 4.0 6.0 0.21 2.15 0.93 95 1011.1
20260502103701 53 223 2.0 6.0 0.22 2.15 0.93 95 1011.1
20260502103600 53 302 1.0 6.0 0.22 2.15 0.93 95 1010.9
20260502103504 53 266 5.0 6.0 0.22 2.15 0.93 95 1010.9
20260502103400 53 269 4.0 6.0 0.22 2.15 0.93 95 1010.8
20260502103201 53 248 3.0 5.0 0.22 2.15 0.93 95 1010.7
20260502103100 53 246 2.0 5.0 0.22 2.15 0.93 95 1010.5
20260502102900 54 141 2.0 6.0 0.21 2.14 0.92 95 1010.5
20260502102800 54 257 1.0 6.0 0.21 2.14 0.92 95 1010.7
20260502102700 54 259 0.0 6.0 0.21 2.14 0.92 95 1010.9
20260502102600 54 148 4.0 6.0 0.20 2.13 0.91 95 1010.9
20260502102505 54 321 1.0 6.0 0.20 2.13 0.91 95 1011.0
20260502102400 54 257 4.0 6.0 0.20 2.13 0.91 95 1011.1
20260502102300 54 235 2.0 6.0 0.19 2.12 0.90 95 1011.1
20260502102200 54 235 2.0 6.0 0.19 2.12 0.90 95 1011.1
20260502102100 54 316 5.0 6.0 0.19 2.12 0.90 95 1011.1
20260502101801 54 278 2.0 6.0 0.18 2.11 0.89 95 1011.1
20260502101700 54 279 2.0 6.0 0.17 2.10 0.88 95 1011.1
20260502101600 54 239 2.0 6.0 0.17 2.10 0.88 95 1011.0
20260502101504 54 231 3.0 6.0 0.16 2.09 0.87 95 1011.0
20260502101400 54 276 0.0 6.0 0.16 2.09 0.87 95 1011.1
20260502101300 54 220 2.0 6.0 0.16 2.08 0.86 95 1011.1
20260502101201 54 248 3.0 6.0 0.16 2.08 0.86 95 1011.1
20260502101100 54 313 3.0 6.0 0.15 2.07 0.85 95 1010.9
20260502101005 54 250 4.0 6.0 0.15 2.07 0.85 95 1010.9
20260502100900 54 302 3.0 6.0 0.14 2.06 0.84 95 1011.0
20260502100800 54 299 3.0 5.0 0.14 2.06 0.84 95 1011.0
20260502100700 54 304 1.0 5.0 0.13 2.05 0.83 95 1011.0
20260502100600 54 332 2.0 6.0 0.13 2.05 0.83 95 1011.0
20260502100504 54 265 3.0 6.0 0.12 2.04 0.82 95 1011.0
20260502100400 54 283 4.0 6.0 0.12 2.04 0.82 95 1011.2
20260502100301 54 257 2.0 6.0 0.12 2.03 0.81 95 1011.1
20260502100200 54 262 4.0 6.0 0.12 2.03 0.81 95 1011.3
20260502091400 54 299 2.0 5.0 0.11 1.93 0.71 95 1009.4
20260502091301 54 243 1.0 5.0 0.10 1.92 0.70 95 1009.4
20260502091100 54 229 3.0 5.0 0.11 1.92 0.70 95 1009.6
20260502091003 54 260 2.0 5.0 0.11 1.92 0.70 95 1009.6
20260502090901 54 250 2.0 5.0 0.12 1.92 0.70 95 1010.1
20260502090800 54 193 2.0 4.0 0.12 1.92 0.70 95 1010.2
20260502090700 54 232 2.0 4.0 0.12 1.92 0.70 95 1010.2
20260502090600 54 230 2.0 4.0 0.12 1.92 0.70 95 1010.1
20260502090505 54 276 1.0 4.0 0.12 1.92 0.70 95 1010.1
20260502090359 54 272 2.0 4.0 0.13 1.92 0.70 95 1010.1
20260502090300 54 260 0.0 4.0 0.12 1.91 0.69 95 1010.2
20260502090200 54 221 3.0 4.0 0.13 1.91 0.69 95 1010.1
20260502071504 55 236 1.0 5.0 0.09 1.50 0.28 94 1010.9
20260502071359 55 131 0.0 5.0 0.08 1.49 0.27 94 1010.9
20260502071300 55 236 3.0 5.0 0.08 1.49 0.27 94 1010.9
20260502071200 55 203 0.0 5.0 0.07 1.48 0.26 94 1011.0
20260502071100 55 272 2.0 5.0 0.06 1.47 0.25 94 1010.8
20260502070900 55 236 2.0 5.0 0.06 1.47 0.25 94 1010.7
20260502070801 56 236 3.0 5.0 0.05 1.46 0.24 94 1010.8
20260502070700 56 255 0.0 5.0 0.05 1.46 0.24 94 1010.7
20260502070600 56 251 3.0 5.0 0.06 1.46 0.24 94 1010.6
20260502070504 56 251 3.0 5.0 0.06 1.46 0.24 94 1010.6
20260502070300 56 239 2.0 5.0 0.06 1.46 0.24 94 1010.6
20260502070100 56 269 3.0 4.0 0.06 1.46 0.24 94 1010.6
20260502070006 56 276 2.0 4.0 0.06 1.46 0.24 94 1010.6
20260502065900 56 271 4.0 4.0 0.06 1.46 0.24 94 1010.4
20260502065800 56 224 3.0 4.0 0.07 1.46 0.24 94 1010.3
20260502065700 56 257 1.0 4.0 0.07 1.46 0.24 94 1010.3
20260502065504 56 230 2.0 4.0 0.08 1.46 0.24 94 1010.3
20260502065400 56 274 1.0 4.0 0.09 1.46 0.24 94 1010.3
20260502065301 56 226 2.0 4.0 0.08 1.45 0.23 94 1010.3
20260502065101 56 250 2.0 4.0 0.08 1.45 0.23 94 1010.4
20260502065004 56 219 3.0 4.0 0.08 1.45 0.23 94 1010.4
20260502064859 56 250 2.0 4.0 0.08 1.45 0.23 94 1010.6
20260502064800 56 250 2.0 5.0 0.08 1.45 0.23 94 1010.7
20260502064700 56 233 0.0 5.0 0.09 1.45 0.23 94 1010.9
20260502064559 56 228 1.0 5.0 0.08 1.44 0.22 94 1010.9
20260502064400 56 267 3.0 5.0 0.08 1.44 0.22 94 1010.9
20260502064300 56 239 0.0 5.0 0.08 1.44 0.22 94 1011.0
20260502064200 56 255 0.0 5.0 0.08 1.44 0.22 94 1011.2
20260502064100 56 255 0.0 5.0 0.08 1.44 0.22 94 1011.2
20260502064005 56 235 3.0 5.0 0.09 1.44 0.22 94 1011.1
20260502063901 56 250 4.0 5.0 0.09 1.44 0.22 94 1011.1
20260502063800 56 252 3.0 3.0 0.08 1.43 0.21 94 1011.1
20260502063700 56 258 3.0 4.0 0.08 1.43 0.21 94 1011.1
20260502063504 56 237 0.0 4.0 0.08 1.43 0.21 94 1011.1
20260502063359 56 258 1.0 4.0 0.09 1.43 0.21 94 1011.3
20260502063200 56 227 1.0 4.0 0.09 1.43 0.21 94 1011.4
20260502063100 56 255 2.0 4.0 0.09 1.43 0.21 94 1011.3
20260502062900 56 230 2.0 4.0 0.10 1.43 0.21 94 1011.3
20260502062801 56 243 2.0 4.0 0.10 1.43 0.21 94 1011.2
20260502062659 56 233 3.0 4.0 0.10 1.42 0.20 94 1011.2
20260502062504 56 211 0.0 4.0 0.11 1.42 0.20 94 1011.3
20260502062259 56 220 0.0 5.0 0.12 1.42 0.20 94 1011.5
20260502062159 56 224 1.0 5.0 0.11 1.41 0.19 94 1011.7
20260502062004 56 227 2.0 5.0 0.11 1.41 0.19 94 1011.7
20260502061900 56 222 2.0 5.0 0.12 1.41 0.19 94 1011.7
20260502061800 56 221 1.0 5.0 0.13 1.41 0.19 94 1011.7
20260502061601 56 219 2.0 5.0 0.13 1.41 0.19 94 1011.7
20260502061401 56 212 4.0 5.0 0.13 1.41 0.19 94 1011.5
20260502061300 56 231 4.0 5.0 0.14 1.41 0.19 94 1011.4
20260502061101 56 237 3.0 5.0 0.14 1.41 0.19 94 1011.2
20260502061005 56 255 3.0 5.0 0.15 1.41 0.19 94 1011.2
20260502060859 56 237 3.0 5.0 0.15 1.41 0.19 94 1011.2
20260502060802 56 227 2.0 5.0 0.15 1.41 0.19 94 1011.2
20260502060700 56 219 5.0 5.0 0.16 1.41 0.19 94 1011.3
20260502060600 56 220 3.0 4.0 0.15 1.40 0.18 94 1011.2
20260502060503 56 234 2.0 4.0 0.16 1.40 0.18 94 1011.2
20260502060359 56 232 2.0 4.0 0.16 1.40 0.18 94 1011.1
20260502060300 56 229 2.0 4.0 0.17 1.40 0.18 94 1011.3
20260502060200 56 167 0.0 4.0 0.17 1.40 0.18 94 1011.3
20260502060101 56 251 0.0 4.0 0.17 1.40 0.18 94 1011.4
20260502060007 56 318 0.0 4.0 0.18 1.40 0.18 94 1011.4
20260502055901 56 279 2.0 4.0 0.18 1.40 0.18 94 1011.8
20260502055802 56 235 3.0 4.0 0.17 1.39 0.17 94 1011.8
20260502055701 56 248 1.0 5.0 0.18 1.39 0.17 94 1011.8
20260502055601 56 285 3.0 5.0 0.17 1.38 0.16 94 1011.7
20260502055505 56 199 3.0 5.0 0.16 1.37 0.15 94 1011.6
20260502055400 56 90 0.0 5.0 0.17 1.37 0.15 94 1012.1
20260502055305 56 253 0.0 5.0 0.18 1.37 0.15 94 1012.4
20260502055101 56 241 0.0 5.0 0.19 1.37 0.15 94 1012.8
20260502055005 56 238 2.0 5.0 0.20 1.37 0.15 94 1012.8
20260502054901 56 238 3.0 5.0 0.21 1.37 0.15 94 1012.7
20260502054800 56 244 4.0 5.0 0.23 1.37 0.15 94 1012.5
20260502054701 56 257 3.0 4.0 0.22 1.36 0.14 94 1012.2
20260502054601 56 250 2.0 4.0 0.24 1.36 0.14 94 1012.1
20260502054505 56 233 2.0 6.0 0.24 1.36 0.14 94 1012.1
20260502054403 56 228 4.0 6.0 0.25 1.36 0.14 94 1011.9
20260502054302 56 212 2.0 6.0 0.25 1.36 0.14 94 1011.8
20260502054201 56 231 2.0 6.0 0.26 1.36 0.14 94 1011.6
20260502054101 56 269 1.0 6.0 0.27 1.36 0.14 94 1011.7
20260502054004 56 240 0.0 6.0 0.27 1.35 0.13 94 1011.7
20260502053801 56 234 2.0 6.0 0.28 1.35 0.13 93 1011.7
20260502053601 56 193 3.0 6.0 0.30 1.35 0.13 93 1011.5
20260502053504 56 167 3.0 6.0 0.30 1.35 0.13 93 1011.5
20260502053401 56 186 2.0 6.0 0.32 1.34 0.12 93 1011.6
20260502053301 56 206 3.0 6.0 0.32 1.34 0.12 93 1011.6
20260502053201 56 158 3.0 4.0 0.33 1.34 0.12 93 1011.8
20260502053102 56 244 2.0 4.0 0.33 1.34 0.12 93 1011.8
20260502053005 56 224 2.0 4.0 0.33 1.33 0.11 93 1012.1
20260502052901 56 230 2.0 4.0 0.34 1.33 0.11 93 1012.2
20260502052801 56 265 4.0 5.0 0.33 1.32 0.10 93 1012.2
20260502052702 56 269 3.0 5.0 0.33 1.32 0.10 93 1012.0
20260502052601 56 264 2.0 5.0 0.32 1.31 0.09 93 1012.0
20260502052505 56 230 2.0 5.0 0.32 1.31 0.09 93 1012.0
20260502052401 56 200 0.0 5.0 0.33 1.31 0.09 93 1012.7
20260502052201 56 218 3.0 5.0 0.32 1.30 0.08 93 1012.6
20260502052101 56 219 3.0 5.0 0.32 1.30 0.08 93 1012.3
20260502052004 56 191 3.0 5.0 0.31 1.29 0.07 93 1012.3
20260502051901 56 217 2.0 4.0 0.32 1.29 0.07 93 1012.2
20260502051800 55 220 0.0 4.0 0.31 1.28 0.06 93 1012.5
20260502051701 56 228 1.0 5.0 0.31 1.28 0.06 93 1012.5
20260502051601 55 237 3.0 5.0 0.32 1.28 0.06 93 1012.6
20260502051401 56 281 0.0 5.0 0.31 1.27 0.05 93 1012.5
20260502051201 56 244 2.0 5.0 0.33 1.27 0.05 93 1012.9
20260502051100 56 228 4.0 5.0 0.32 1.26 0.04 93 1012.9
20260502051006 56 235 2.0 5.0 0.32 1.26 0.04 93 1012.7
20260502050901 56 205 2.0 5.0 0.33 1.26 0.04 93 1012.4
20260502050800 56 171 5.0 5.0 0.34 1.26 0.04 93 1012.3
20260502050701 56 194 3.0 3.0 0.33 1.25 0.03 93 1012.3
20260502050601 56 233 1.0 3.0 0.34 1.25 0.03 93 1012.2
20260502050505 56 226 2.0 3.0 0.34 1.24 0.02 93 1012.3
20260502050401 56 251 0.0 3.0 0.35 1.24 0.02 93 1012.4
20260502050301 56 269 0.0 3.0 0.35 1.23 0.01 93 1012.6
20260502050201 56 234 2.0 3.0 0.35 1.23 0.01 93 1012.6
20260502050009 56 239 0.0 3.0 0.35 1.22 0.00 93 1012.6
20260502045902 56 236 0.0 3.0 0.37 1.22 1.22 93 1012.9
20260502045802 56 236 0.0 3.0 0.36 1.21 1.21 93 1013.1
20260502045702 56 236 0.0 3.0 0.37 1.21 1.21 93 1013.3
20260502045603 56 245 2.0 3.0 0.37 1.20 1.20 93 1013.2
20260502045504 56 293 3.0 4.0 0.38 1.20 1.20 93 1013.3
20260502045402 56 252 2.0 4.0 0.39 1.20 1.20 93 1013.2
20260502045305 56 255 1.0 4.0 0.38 1.19 1.19 93 1013.2
20260502045102 56 236 2.0 4.0 0.38 1.17 1.17 93 1013.3
20260502045005 56 238 2.0 4.0 0.37 1.16 1.16 93 1013.3
20260502044902 56 212 2.0 4.0 0.37 1.15 1.15 93 1013.4
20260502044802 56 211 3.0 4.0 0.36 1.14 1.14 93 1013.4
20260502044701 56 239 3.0 4.0 0.36 1.13 1.13 93 1013.2
20260502044602 56 231 4.0 4.0 0.35 1.12 1.12 93 1013.2
20260502044402 56 262 2.0 4.0 0.33 1.10 1.10 93 1013.1
20260502044302 56 204 3.0 4.0 0.34 1.10 1.10 93 1013.1
20260502044202 56 228 3.0 4.0 0.33 1.09 1.09 93 1013.1
20260502044006 56 233 2.0 4.0 0.31 1.07 1.07 93 1013.1
20260502043901 56 232 3.0 4.0 0.32 1.07 1.07 93 1013.0
20260502043802 56 237 3.0 4.0 0.31 1.06 1.06 93 1012.8
20260502043702 56 245 2.0 5.0 0.30 1.05 1.05 93 1012.6
20260502043602 56 242 0.0 5.0 0.31 1.05 1.05 93 1012.7
20260502043302 56 248 2.0 5.0 0.28 1.01 1.01 93 1013.3
20260502043201 56 245 2.0 5.0 0.28 1.00 1.00 93 1013.5
20260502042902 56 279 4.0 5.0 0.28 0.99 0.99 92 1013.6
20260502042803 56 266 3.0 5.0 0.28 0.99 0.99 92 1013.5
20260502042703 56 244 3.0 5.0 0.28 0.99 0.99 92 1013.3
20260502042602 56 229 5.0 5.0 0.29 0.99 0.99 92 1012.9
20260502042505 56 225 3.0 5.0 0.28 0.98 0.98 92 1012.9
20260502042403 56 226 2.0 5.0 0.28 0.98 0.98 92 1012.6
20260502042301 56 229 4.0 5.0 0.28 0.98 0.98 92 1012.4
20260502042102 56 238 4.0 5.0 0.29 0.98 0.98 92 1012.3
20260502041902 56 267 2.0 5.0 0.28 0.97 0.97 92 1012.0
20260502041803 56 225 2.0 5.0 0.29 0.97 0.97 92 1012.0
20260502041702 56 272 3.0 5.0 0.28 0.96 0.96 92 1011.9
20260502041603 56 223 3.0 4.0 0.28 0.96 0.96 92 1011.9
20260502041505 56 245 3.0 4.0 0.28 0.96 0.96 92 1011.9
20260502041402 56 235 1.0 4.0 0.27 0.95 0.95 92 1011.9
20260502041303 56 311 3.0 4.0 0.28 0.95 0.95 92 1011.8
20260502041102 56 234 0.0 4.0 0.27 0.94 0.94 92 1011.8
20260502040902 56 269 1.0 4.0 0.26 0.93 0.93 92 1012.2
20260502040704 56 283 0.0 4.0 0.24 0.91 0.91 92 1012.8
20260502040602 56 284 0.0 4.0 0.23 0.90 0.90 92 1013.1
20260502040402 56 239 2.0 5.0 0.22 0.89 0.89 92 1013.3
20260502040301 56 240 3.0 5.0 0.21 0.88 0.88 92 1013.3
20260502040202 56 242 4.0 5.0 0.21 0.88 0.88 92 1013.3
20260502040007 56 237 3.0 5.0 0.19 0.86 0.86 92 1013.3
20260502035903 56 222 2.0 5.0 0.18 0.85 0.85 92 1013.1
20260502035802 56 205 3.0 5.0 0.18 0.85 0.85 92 1013.0
20260502035601 56 239 3.0 5.0 0.16 0.83 0.83 92 1012.8
20260502035505 56 319 3.0 5.0 0.15 0.82 0.82 92 1012.7
20260502035402 56 277 5.0 5.0 0.14 0.81 0.81 92 1012.8
20260502035302 56 238 3.0 4.0 0.14 0.81 0.81 92 1012.8
20260502035201 56 251 2.0 4.0 0.13 0.80 0.80 92 1012.9
20260502035102 56 264 1.0 4.0 0.12 0.79 0.79 92 1013.0
20260502035005 56 259 2.0 7.0 0.12 0.79 0.79 92 1013.1
20260502034701 56 265 0.0 7.0 0.11 0.77 0.77 92 1013.1
20260502034602 56 245 0.0 7.0 0.11 0.77 0.77 92 1013.1
20260502034505 56 218 2.0 7.0 0.11 0.77 0.77 92 1013.1
20260502034402 56 285 3.0 7.0 0.11 0.77 0.77 92 1013.1
20260502034201 56 246 1.0 7.0 0.10 0.76 0.76 92 1013.0
20260502034102 56 323 5.0 7.0 0.10 0.76 0.76 92 1012.9
20260502033903 56 272 3.0 4.0 0.09 0.75 0.75 92 1012.5
20260502033702 56 232 4.0 4.0 0.10 0.75 0.75 92 1012.1
20260502033603 56 248 3.0 4.0 0.09 0.74 0.74 92 1011.9
20260502033506 56 205 1.0 4.0 0.09 0.74 0.74 92 1011.9
20260502033302 56 227 2.0 4.0 0.08 0.73 0.73 92 1011.9
20260502033203 56 288 1.0 4.0 0.07 0.72 0.72 92 1012.0
20260502033101 56 232 2.0 4.0 0.08 0.72 0.72 92 1012.1
20260502033006 56 262 2.0 4.0 0.07 0.71 0.71 91 1012.1
20260502032902 56 293 3.0 4.0 0.07 0.71 0.71 92 1012.2
20260502032802 56 223 3.0 4.0 0.07 0.71 0.71 91 1012.2
20260502032702 56 281 3.0 4.0 0.07 0.70 0.70 92 1012.1
20260502032603 56 295 2.0 4.0 0.07 0.70 0.70 91 1012.1
20260502032505 56 239 2.0 4.0 0.07 0.70 0.70 91 1012.1
20260502032305 56 245 3.0 4.0 0.07 0.70 0.70 91 1012.2
20260502032102 56 230 3.0 4.0 0.07 0.69 0.69 91 1012.3
20260502031902 56 231 3.0 4.0 0.07 0.69 0.69 91 1012.4
20260502031801 56 250 3.0 5.0 0.07 0.68 0.68 91 1012.3
20260502031701 56 232 2.0 5.0 0.07 0.68 0.68 91 1012.4
20260502031602 56 252 2.0 5.0 0.07 0.68 0.68 91 1012.4
20260502031505 56 315 1.0 5.0 0.07 0.68 0.68 91 1012.4
20260502031302 56 252 3.0 5.0 0.07 0.67 0.67 91 1012.4
20260502031203 56 260 4.0 5.0 0.07 0.67 0.67 91 1012.4
20260502031101 56 259 3.0 5.0 0.07 0.67 0.67 91 1012.3
20260502031005 56 290 4.0 5.0 0.07 0.67 0.67 91 1012.3
20260502030902 56 295 3.0 5.0 0.08 0.67 0.67 91 1012.3
20260502030802 56 263 2.0 5.0 0.08 0.67 0.67 91 1012.3
20260502030703 56 271 3.0 5.0 0.09 0.67 0.67 91 1012.2
20260502030505 56 262 2.0 5.0 0.09 0.67 0.67 91 1012.2
20260502030402 56 250 2.0 5.0 0.10 0.67 0.67 91 1012.2
20260502030302 56 265 2.0 5.0 0.10 0.67 0.67 91 1012.2
20260502030201 56 258 3.0 5.0 0.10 0.67 0.67 91 1012.1
20260502030101 56 276 3.0 5.0 0.11 0.67 0.67 91 1012.1
20260502025802 56 232 3.0 4.0 0.12 0.67 0.67 91 1012.2
20260502025702 56 263 2.0 4.0 0.13 0.67 0.67 91 1012.0
20260502025505 56 258 0.0 4.0 0.13 0.67 0.67 91 1012.1
20260502025402 56 300 2.0 4.0 0.15 0.67 0.67 91 1012.0
20260502025301 56 229 3.0 4.0 0.15 0.67 0.67 91 1012.0
20260502025202 56 253 2.0 4.0 0.15 0.67 0.67 91 1012.0
20260502025103 56 242 3.0 4.0 0.16 0.67 0.67 91 1012.0
20260502025006 56 234 2.0 4.0 0.16 0.67 0.67 91 1011.9
20260502024902 56 257 2.0 4.0 0.15 0.66 0.66 91 1012.0
20260502024802 56 262 2.0 3.0 0.15 0.66 0.66 91 1012.1
20260502024701 56 250 2.0 3.0 0.16 0.66 0.66 91 1012.1
20260502024602 56 264 1.0 4.0 0.16 0.66 0.66 91 1012.3
20260502024505 56 253 1.0 4.0 0.16 0.66 0.66 91 1012.3
20260502024402 56 228 0.0 4.0 0.16 0.66 0.66 91 1012.4
20260502024302 56 228 0.0 4.0 0.17 0.66 0.66 91 1012.6
20260502024201 56 215 0.0 4.0 0.17 0.66 0.66 91 1012.6
20260502024102 56 228 0.0 4.0 0.17 0.66 0.66 91 1012.7
20260502024005 56 243 0.0 4.0 0.17 0.66 0.66 91 1012.7
20260502023903 56 188 3.0 4.0 0.17 0.66 0.66 91 1012.8
20260502023802 56 213 2.0 4.0 0.18 0.66 0.66 91 1012.8
20260502023701 56 231 3.0 4.0 0.17 0.65 0.65 91 1012.7
20260502023505 56 242 0.0 4.0 0.17 0.65 0.65 91 1012.6
20260502023402 56 267 3.0 4.0 0.19 0.65 0.65 91 1012.5
20260502023303 56 228 3.0 4.0 0.19 0.65 0.65 91 1012.5
20260502023202 56 236 2.0 4.0 0.19 0.64 0.64 91 1012.5
20260502023102 56 222 3.0 5.0 0.20 0.64 0.64 91 1012.5
20260502023007 56 225 2.0 5.0 0.20 0.64 0.64 91 1012.5
20260502022901 56 256 0.0 5.0 0.22 0.64 0.64 91 1012.5
20260502022803 56 244 0.0 5.0 0.22 0.64 0.64 90 1012.6
20260502022702 56 228 1.0 5.0 0.23 0.63 0.63 90 1012.7
20260502022601 56 241 1.0 5.0 0.23 0.63 0.63 90 1012.7
20260502022506 56 199 3.0 5.0 0.23 0.63 0.63 90 1012.7
20260502022306 56 314 0.0 6.0 0.25 0.63 0.63 90 1012.6
20260502022102 56 226 3.0 6.0 0.25 0.62 0.62 90 1012.3
20260502022006 56 183 1.0 6.0 0.25 0.62 0.62 90 1012.3
20260502021902 56 228 5.0 6.0 0.27 0.62 0.62 90 1012.1
20260502021802 56 227 3.0 6.0 0.26 0.61 0.61 90 1012.0
20260502021702 56 232 2.0 6.0 0.27 0.61 0.61 90 1011.9
20260502021603 56 207 2.0 6.0 0.27 0.61 0.61 90 1011.9
20260502021506 56 234 0.0 6.0 0.27 0.61 0.61 90 1011.9
20260502021401 57 219 4.0 4.0 0.27 0.60 0.60 90 1012.0
20260502021303 57 243 2.0 4.0 0.27 0.60 0.60 90 1012.0
20260502021202 56 259 2.0 4.0 0.27 0.60 0.60 90 1012.0
20260502021102 56 255 2.0 5.0 0.27 0.60 0.60 90 1012.0
20260502021006 56 323 3.0 5.0 0.27 0.59 0.59 90 1012.1
20260502020801 56 262 2.0 5.0 0.27 0.59 0.59 90 1012.3
20260502020701 56 233 0.0 5.0 0.26 0.58 0.58 90 1012.3
20260502020603 56 259 3.0 5.0 0.26 0.58 0.58 90 1012.4
20260502020505 56 264 4.0 5.0 0.26 0.58 0.58 90 1012.4
20260502020402 56 257 3.0 5.0 0.26 0.57 0.57 90 1012.4
20260502020303 56 245 3.0 5.0 0.26 0.57 0.57 90 1012.4
20260502020201 56 269 3.0 4.0 0.27 0.57 0.57 90 1012.4
20260502020101 56 258 3.0 4.0 0.26 0.56 0.56 90 1012.4
20260502020008 56 206 0.0 4.0 0.26 0.56 0.56 90 1012.4
20260502015802 56 246 0.0 4.0 0.27 0.55 0.55 90 1012.7
20260502015703 56 246 0.0 4.0 0.26 0.54 0.54 90 1012.7
20260502015604 56 251 2.0 4.0 0.26 0.54 0.54 90 1012.7
20260502015505 56 233 3.0 4.0 0.25 0.53 0.53 90 1012.7
20260502015401 56 243 3.0 4.0 0.25 0.52 0.52 90 1012.7
20260502015305 56 250 3.0 4.0 0.25 0.52 0.52 89 1012.5
20260502015201 56 258 3.0 4.0 0.25 0.52 0.52 89 1012.5
20260502015102 56 276 2.0 4.0 0.24 0.51 0.51 89 1012.4
20260502015006 55 240 2.0 4.0 0.24 0.51 0.51 89 1012.5
20260502014902 55 203 2.0 4.0 0.24 0.51 0.51 89 1012.4
20260502014703 55 181 2.0 4.0 0.23 0.50 0.50 89 1012.3
20260502014505 55 240 2.0 4.0 0.23 0.50 0.50 89 1012.3
20260502014402 55 239 2.0 4.0 0.23 0.50 0.50 89 1012.2
20260502014303 55 231 3.0 4.0 0.22 0.49 0.49 89 1012.2
20260502014203 55 243 3.0 4.0 0.22 0.49 0.49 89 1012.2
20260502014102 55 243 3.0 4.0 0.23 0.49 0.49 89 1012.1
20260502014006 55 208 2.0 3.0 0.23 0.49 0.49 89 1012.1
20260502013903 55 208 0.0 3.0 0.23 0.49 0.49 89 1012.2
20260502013703 55 227 2.0 3.0 0.22 0.48 0.48 89 1012.3
20260502013602 55 227 1.0 3.0 0.22 0.48 0.48 88 1012.4
20260502013401 55 258 0.0 3.0 0.20 0.46 0.46 88 1012.4
20260502013303 55 229 3.0 3.0 0.20 0.46 0.46 88 1012.5
20260502013202 55 216 0.0 3.0 0.20 0.45 0.45 88 1012.4
20260502013102 55 187 2.0 5.0 0.19 0.44 0.44 88 1012.5
20260502013006 55 207 1.0 5.0 0.18 0.43 0.43 88 1012.5
20260502012902 55 250 0.0 5.0 0.17 0.42 0.42 88 1012.6
20260502012802 55 250 0.0 5.0 0.16 0.41 0.41 88 1012.6
20260502012702 55 246 0.0 5.0 0.15 0.40 0.40 88 1012.7
20260502012602 55 278 0.0 5.0 0.16 0.40 0.40 88 1012.9
20260502012506 55 274 1.0 5.0 0.15 0.39 0.39 88 1012.9
20260502012402 55 262 2.0 5.0 0.15 0.39 0.39 88 1013.0
20260502012302 55 221 2.0 5.0 0.14 0.38 0.38 88 1013.0
20260502012202 55 212 2.0 5.0 0.14 0.38 0.38 88 1012.9
20260502012102 55 187 2.0 5.0 0.13 0.37 0.37 88 1012.8
20260502012005 55 169 4.0 5.0 0.12 0.36 0.36 88 1012.7
20260502011902 55 204 0.0 4.0 0.11 0.35 0.35 88 1012.6
20260502011803 55 57 0.0 4.0 0.11 0.35 0.35 88 1012.8
20260502011702 55 251 0.0 4.0 0.11 0.34 0.34 88 1012.8
20260502011505 55 189 2.0 5.0 0.10 0.33 0.33 88 1012.9
20260502011401 55 233 2.0 5.0 0.11 0.33 0.33 88 1012.8
20260502011300 55 250 2.0 5.0 0.12 0.33 0.33 88 1012.8
20260502011201 55 232 3.0 5.0 0.13 0.33 0.33 88 1012.6
20260502011101 55 248 3.0 5.0 0.13 0.32 0.32 88 1012.5
20260502011005 55 267 4.0 5.0 0.13 0.32 0.32 88 1012.5
20260502010902 55 314 0.0 5.0 0.13 0.32 0.32 88 1012.4
20260502010802 55 150 0.0 5.0 0.13 0.32 0.32 88 1012.3
20260502010701 55 346 0.0 5.0 0.13 0.32 0.32 88 1012.3
20260502010506 55 242 2.0 3.0 0.12 0.31 0.31 88 1012.3
20260502010403 56 44 0.0 3.0 0.12 0.31 0.31 88 1012.4
20260502010302 56 253 0.0 3.0 0.12 0.31 0.31 88 1012.6
20260502010202 56 234 0.0 4.0 0.11 0.30 0.30 88 1012.6
20260502005904 56 239 2.0 5.0 0.10 0.29 0.29 88 1012.6
20260502005802 56 283 2.0 5.0 0.09 0.28 0.28 88 1012.7
20260502005703 56 258 2.0 5.0 0.09 0.28 0.28 88 1012.7
20260502005602 56 252 3.0 5.0 0.09 0.28 0.28 88 1012.7
20260502005505 56 255 0.0 5.0 0.09 0.28 0.28 88 1012.7
20260502005401 56 307 2.0 5.0 0.08 0.27 0.27 88 1012.6
20260502005202 56 340 4.0 5.0 0.08 0.27 0.27 88 1012.5
20260502005102 57 274 2.0 5.0 0.08 0.27 0.27 88 1012.4
20260502005007 57 345 1.0 5.0 0.08 0.27 0.27 88 1012.4
20260502004902 57 250 3.0 5.0 0.08 0.27 0.27 88 1012.3
20260502004801 57 257 2.0 5.0 0.08 0.27 0.27 89 1012.2
20260502004601 57 194 0.0 5.0 0.08 0.27 0.27 88 1012.1
20260502004401 57 270 0.0 5.0 0.08 0.27 0.27 88 1012.1
20260502004202 58 349 3.0 5.0 0.07 0.26 0.26 89 1012.0
20260502004101 58 293 1.0 5.0 0.07 0.26 0.26 89 1012.0
20260502004005 58 360 3.0 5.0 0.07 0.26 0.26 89 1012.0
20260502003902 58 325 4.0 5.0 0.07 0.26 0.26 89 1012.0
20260502003802 58 231 2.0 5.0 0.07 0.26 0.26 89 1012.0
20260502003701 58 279 3.0 5.0 0.07 0.26 0.26 89 1012.0
20260502003604 58 302 0.0 5.0 0.07 0.26 0.26 89 1012.0
20260502003402 58 264 2.0 5.0 0.07 0.26 0.26 89 1012.0
20260502003203 58 288 3.0 5.0 0.06 0.25 0.25 89 1012.0
20260502003102 58 350 3.0 4.0 0.06 0.25 0.25 89 1012.0
20260502003006 59 321 2.0 4.0 0.06 0.25 0.25 89 1012.0
20260502002901 59 293 2.0 4.0 0.06 0.25 0.25 89 1012.1
20260502002801 59 321 0.0 4.0 0.06 0.25 0.25 89 1012.0
20260502002603 59 290 3.0 4.0 0.05 0.24 0.24 89 1011.9
20260502002505 59 343 0.0 4.0 0.05 0.24 0.24 89 1011.8
20260502002403 59 243 2.0 4.0 0.05 0.24 0.24 89 1011.8
20260502002305 59 127 0.0 4.0 0.05 0.24 0.24 89 1011.9
20260502002101 59 314 0.0 4.0 0.05 0.24 0.24 89 1012.2
20260502002005 59 287 3.0 4.0 0.05 0.24 0.24 89 1012.4
20260502001902 59 276 3.0 4.0 0.05 0.24 0.24 89 1012.2
20260502001803 59 271 4.0 4.0 0.04 0.23 0.23 89 1012.2
20260502001701 59 271 3.0 4.0 0.04 0.23 0.23 89 1012.0
20260502001505 59 281 3.0 4.0 0.04 0.23 0.23 89 1011.8
20260502001402 59 267 1.0 4.0 0.03 0.22 0.22 89 1011.9
20260502001302 59 23 0.0 4.0 0.02 0.21 0.21 89 1011.8
20260502001200 59 235 1.0 4.0 0.01 0.20 0.20 89 1011.9
20260502001006 59 146 1.0 4.0 0.00 0.19 0.19 89 1012.2
20260502000902 59 203 2.0 4.0 0.00 0.19 0.19 89 1012.2
20260502000801 59 216 3.0 4.0 0.00 0.19 0.19 89 1012.1
20260502000701 59 224 3.0 4.0 0.00 0.19 0.19 89 1011.9
20260502000602 59 200 3.0 3.0 0.00 0.19 0.19 89 1011.8
20260502000505 59 222 0.0 3.0 0.00 0.19 0.19 89 1011.7
20260502000403 59 222 0.0 3.0 0.01 0.19 0.19 89 1011.7
20260502000204 59 237 1.0 3.0 0.01 0.19 0.19 88 1011.7
20260502000008 59 255 0.0 4.0 0.01 0.19 0.19 88 1011.7
20260501235901 59 264 2.0 4.0 0.01 0.19 0.19 89 1011.6
20260501235803 59 274 0.0 4.0 0.01 0.19 0.19 89 1011.6
20260501235701 59 262 0.0 4.0 0.01 0.19 0.19 89 1011.6
20260501235506 59 229 1.0 4.0 0.02 0.19 0.19 88 1011.7
20260501235402 59 248 2.0 4.0 0.02 0.19 0.19 88 1011.5
20260501235202 59 262 2.0 3.0 0.03 0.19 0.19 88 1011.5
20260501235103 59 179 1.0 4.0 0.03 0.19 0.19 89 1011.6
20260501234902 59 218 0.0 4.0 0.04 0.19 0.19 88 1011.7
20260501234802 59 198 0.0 4.0 0.04 0.19 0.19 88 1011.7
20260501234701 59 217 0.0 4.0 0.04 0.19 0.19 88 1011.8
20260501234602 59 253 0.0 4.0 0.04 0.19 0.19 88 1011.8
20260501234505 59 244 2.0 4.0 0.04 0.19 0.19 88 1011.7
20260501234401 59 245 3.0 4.0 0.04 0.19 0.19 88 1011.7
20260501234303 59 269 2.0 4.0 0.04 0.19 0.19 88 1011.7
20260501234202 59 295 2.0 4.0 0.04 0.19 0.19 88 1011.7
20260501234103 59 270 3.0 4.0 0.04 0.19 0.19 88 1011.7
20260501234005 59 277 3.0 3.0 0.04 0.19 0.19 88 1011.8
20260501233904 59 255 2.0 4.0 0.04 0.19 0.19 88 1011.8
20260501233802 59 246 1.0 4.0 0.04 0.19 0.19 88 1011.8
20260501233602 59 222 0.0 4.0 0.04 0.19 0.19 88 1011.9
20260501233505 59 222 0.0 4.0 0.04 0.19 0.19 88 1011.9
20260501233404 59 222 0.0 5.0 0.04 0.19 0.19 88 1012.1
20260501233302 59 243 0.0 5.0 0.04 0.19 0.19 88 1012.2
20260501233202 59 250 2.0 5.0 0.04 0.19 0.19 88 1012.2
20260501233102 59 242 3.0 5.0 0.04 0.19 0.19 88 1012.2
20260501233006 59 258 2.0 5.0 0.04 0.19 0.19 88 1012.2
20260501232901 59 196 3.0 5.0 0.04 0.19 0.19 88 1012.1
20260501232802 59 240 0.0 5.0 0.04 0.19 0.19 88 1012.0
20260501232703 59 162 1.0 5.0 0.04 0.19 0.19 88 1012.0
20260501232602 59 181 1.0 5.0 0.04 0.19 0.19 88 1012.1
20260501232504 59 203 2.0 3.0 0.04 0.19 0.19 88 1012.0
20260501232402 59 227 0.0 4.0 0.04 0.19 0.19 88 1012.0
20260501232305 59 174 0.0 4.0 0.04 0.19 0.19 88 1011.9
20260501232202 59 230 1.0 4.0 0.04 0.19 0.19 88 1011.9
20260501232102 59 208 1.0 4.0 0.04 0.19 0.19 88 1011.8
20260501232005 59 206 0.0 4.0 0.04 0.19 0.19 88 1011.7
20260501231901 59 224 3.0 4.0 0.04 0.19 0.19 88 1011.8
20260501231803 59 211 3.0 5.0 0.04 0.19 0.19 88 1011.8
20260501231601 59 262 1.0 6.0 0.05 0.19 0.19 88 1011.7
20260501231505 59 259 2.0 6.0 0.05 0.19 0.19 88 1011.7
20260501231403 60 211 2.0 6.0 0.05 0.19 0.19 88 1011.7
20260501231201 60 120 2.0 6.0 0.05 0.19 0.19 88 1011.7
20260501231102 60 192 0.0 6.0 0.05 0.19 0.19 88 1011.6
20260501231006 60 234 2.0 6.0 0.05 0.19 0.19 88 1011.6
20260501230902 60 247 5.0 6.0 0.05 0.19 0.19 88 1011.3
20260501230802 60 195 6.0 6.0 0.05 0.19 0.19 88 1011.1
20260501230702 60 153 0.0 5.0 0.05 0.19 0.19 88 1011.0
20260501230601 60 223 5.0 5.0 0.05 0.19 0.19 88 1011.0
20260501230505 60 241 0.0 5.0 0.05 0.19 0.19 88 1011.0
20260501230402 60 276 1.0 5.0 0.04 0.18 0.18 88 1010.9
20260501230302 60 250 2.0 5.0 0.04 0.18 0.18 88 1010.9
20260501230008 61 264 0.0 3.0 0.04 0.18 0.18 88 1010.9
20260501225901 61 257 1.0 3.0 0.04 0.18 0.18 88 1011.0
20260501225802 61 193 0.0 2.0 0.04 0.18 0.18 88 1011.0
20260501225702 61 202 0.0 2.0 0.04 0.18 0.18 88 1011.1
20260501225602 61 148 0.0 2.0 0.03 0.17 0.17 88 1011.3
20260501225504 61 41 0.0 1.0 0.03 0.17 0.17 88 1011.4
20260501225402 61 28 0.0 2.0 0.03 0.17 0.17 88 1011.6
20260501225305 61 28 0.0 2.0 0.02 0.16 0.16 88 1011.7
20260501225203 61 28 0.0 2.0 0.02 0.16 0.16 88 1011.9
20260501225101 61 230 0.0 3.0 0.02 0.16 0.16 88 1011.9
20260501224903 61 242 1.0 3.0 0.01 0.15 0.15 88 1012.2
20260501224803 61 96 0.0 3.0 0.01 0.15 0.15 88 1012.2
20260501224701 61 255 0.0 3.0 0.01 0.15 0.15 88 1012.2
20260501224601 61 255 0.0 3.0 0.01 0.15 0.15 88 1012.3
20260501224505 61 215 0.0 3.0 0.01 0.15 0.15 88 1012.3
20260501224404 61 231 2.0 3.0 0.01 0.15 0.15 88 1012.3
20260501224302 61 250 1.0 4.0 0.01 0.15 0.15 88 1012.2
20260501224203 61 223 2.0 4.0 0.01 0.15 0.15 88 1012.2
20260501224102 61 227 2.0 4.0 0.01 0.15 0.15 88 1012.2
20260501224005 61 234 2.0 4.0 0.01 0.15 0.15 88 1012.2
20260501223902 61 228 2.0 4.0 0.01 0.15 0.15 88 1012.1
20260501223702 61 230 2.0 4.0 0.01 0.15 0.15 88 1012.1
20260501223602 61 218 2.0 4.0 0.01 0.15 0.15 88 1012.0
20260501223506 61 234 0.0 4.0 0.01 0.15 0.15 88 1011.9
20260501223402 61 294 4.0 4.0 0.01 0.15 0.15 88 1012.0
20260501223302 61 248 0.0 2.0 0.01 0.15 0.15 88 1011.9
20260501223201 61 225 2.0 3.0 0.01 0.15 0.15 88 1011.9
20260501223101 61 244 0.0 3.0 0.01 0.15 0.15 88 1012.0
20260501223006 61 281 0.0 3.0 0.01 0.15 0.15 88 1012.0
20260501222901 61 237 0.0 3.0 0.01 0.15 0.15 88 1011.9
20260501222803 61 236 1.0 3.0 0.01 0.15 0.15 88 1012.0
20260501222702 61 232 1.0 3.0 0.01 0.15 0.15 88 1011.9
20260501222505 61 224 0.0 5.0 0.01 0.15 0.15 88 1012.0
20260501222305 61 231 2.0 5.0 0.01 0.15 0.15 88 1012.1
20260501222102 61 223 2.0 5.0 0.01 0.15 0.15 88 1012.1
20260501222005 61 219 3.0 5.0 0.01 0.15 0.15 88 1012.0
20260501221902 61 224 2.0 5.0 0.01 0.15 0.15 88 1011.8
20260501221803 61 205 2.0 5.0 0.00 0.14 0.14 88 1011.8
20260501221601 61 217 0.0 4.0 0.00 0.14 0.14 88 1011.0
20260501221402 61 4 0.0 3.0 0.00 0.14 0.14 88 1011.4
20260501221301 61 73 0.0 4.0 0.00 0.14 0.14 88 1011.5
20260501221201 61 291 1.0 4.0 0.00 0.14 0.14 88 1011.8
20260501221102 61 332 1.0 4.0 0.00 0.14 0.14 88 1011.9
20260501221005 61 232 0.0 4.0 0.00 0.14 0.14 88 1012.0
20260501220801 61 211 3.0 4.0 0.00 0.14 0.14 88 1012.1
20260501220702 61 227 2.0 4.0 0.00 0.14 0.14 88 1012.1
20260501220601 61 236 2.0 4.0 0.00 0.14 0.14 88 1012.0
20260501220402 61 210 3.0 5.0 0.00 0.14 0.14 88 1011.9
20260501220302 61 230 3.0 5.0 0.00 0.14 0.14 88 1011.8
20260501220201 61 250 4.0 5.0 0.00 0.14 0.14 88 1011.8
20260501220008 61 234 2.0 5.0 0.00 0.14 0.14 88 1011.8
20260501215901 61 295 2.0 5.0 0.00 0.14 0.14 88 1011.6
20260501215801 61 235 2.0 5.0 0.00 0.14 0.14 88 1011.5
20260501215701 61 242 1.0 5.0 0.00 0.14 0.14 88 1011.2
20260501215601 61 220 3.0 4.0 0.00 0.14 0.14 88 1010.9
20260501215505 61 236 1.0 4.0 0.00 0.14 0.14 88 1010.9
20260501215401 61 314 0.0 4.0 0.00 0.14 0.14 88 1010.6
20260501215301 61 198 2.0 4.0 0.00 0.14 0.14 88 1010.7
20260501215201 61 255 0.0 4.0 0.00 0.14 0.14 88 1010.7
20260501215005 61 160 2.0 4.0 0.00 0.14 0.14 88 1010.7
20260501214901 61 205 2.0 4.0 0.00 0.14 0.14 88 1010.7
20260501214800 61 223 0.0 4.0 0.00 0.14 0.14 88 1010.6
20260501214700 61 215 1.0 4.0 0.00 0.14 0.14 88 1010.6
20260501214600 62 216 1.0 3.0 0.00 0.14 0.14 88 1010.7
20260501214505 62 207 0.0 3.0 0.00 0.14 0.14 88 1010.7
20260501214401 62 238 0.0 3.0 0.00 0.14 0.14 88 1011.0
20260501214301 62 236 0.0 3.0 0.00 0.14 0.14 88 1011.1
20260501214201 62 199 1.0 3.0 0.00 0.14 0.14 88 1011.2
20260501214101 62 219 0.0 4.0 0.00 0.14 0.14 88 1011.3
20260501213901 61 187 2.0 4.0 0.00 0.14 0.14 88 1011.4
20260501213801 62 232 1.0 4.0 0.00 0.14 0.14 88 1011.4
20260501213701 62 218 0.0 4.0 0.00 0.14 0.14 88 1011.5
20260501213600 61 224 2.0 4.0 0.01 0.14 0.14 88 1011.6
20260501213503 61 226 3.0 4.0 0.01 0.14 0.14 88 1011.7
20260501213302 61 219 3.0 4.0 0.01 0.14 0.14 88 1011.5
20260501213100 61 216 2.0 4.0 0.01 0.14 0.14 88 1011.4
20260501213005 61 233 1.0 4.0 0.01 0.14 0.14 88 1011.4
20260501212900 61 220 0.0 4.0 0.01 0.14 0.14 88 1011.5
20260501212801 61 191 4.0 4.0 0.01 0.14 0.14 88 1011.5
20260501212701 61 200 1.0 4.0 0.01 0.14 0.14 88 1011.5
20260501212600 61 215 0.0 4.0 0.01 0.14 0.14 88 1011.4
20260501212505 61 239 0.0 4.0 0.01 0.14 0.14 88 1011.4
20260501212401 61 229 2.0 4.0 0.01 0.14 0.14 87 1011.5
20260501212201 61 321 4.0 4.0 0.01 0.14 0.14 88 1011.4
20260501212101 61 255 2.0 3.0 0.01 0.14 0.14 88 1011.2
20260501212005 61 285 3.0 3.0 0.01 0.14 0.14 88 1011.2
20260501211900 61 221 2.0 3.0 0.01 0.14 0.14 87 1011.1
20260501211801 61 251 2.0 3.0 0.01 0.14 0.14 87 1011.2
20260501211505 61 262 2.0 5.0 0.01 0.14 0.14 87 1011.2
20260501211401 61 255 3.0 5.0 0.01 0.14 0.14 88 1011.2
20260501211301 61 226 0.0 5.0 0.01 0.14 0.14 88 1011.2
20260501211201 61 232 2.0 5.0 0.01 0.14 0.14 88 1011.3
20260501211101 61 211 2.0 5.0 0.01 0.14 0.14 87 1011.4
20260501210901 61 205 0.0 5.0 0.01 0.14 0.14 87 1011.5
20260501210801 62 319 2.0 5.0 0.01 0.14 0.14 87 1011.5
20260501210701 62 265 2.0 5.0 0.01 0.14 0.14 88 1011.5
20260501210601 62 225 0.0 3.0 0.01 0.14 0.14 88 1011.5
20260501210504 62 231 2.0 3.0 0.01 0.14 0.14 87 1011.6
20260501210401 62 222 3.0 3.0 0.01 0.14 0.14 87 1011.6
20260501210300 62 285 2.0 3.0 0.01 0.14 0.14 88 1011.6
20260501210201 61 225 2.0 3.0 0.01 0.14 0.14 87 1011.6
20260501205900 61 239 1.0 4.0 0.01 0.14 0.14 87 1011.6
20260501205801 61 235 1.0 4.0 0.01 0.14 0.14 87 1011.6
20260501205701 61 243 3.0 4.0 0.01 0.14 0.14 87 1011.7
20260501205505 61 262 3.0 4.0 0.01 0.14 0.14 87 1011.7
20260501205400 61 223 2.0 4.0 0.01 0.14 0.14 87 1011.6
20260501205305 61 226 2.0 4.0 0.01 0.14 0.14 87 1011.8
20260501205200 61 263 3.0 4.0 0.01 0.14 0.14 87 1011.7
20260501205100 61 271 2.0 5.0 0.01 0.14 0.14 87 1011.6
20260501205006 61 240 1.0 5.0 0.01 0.14 0.14 87 1011.6
20260501204900 61 295 2.0 5.0 0.01 0.14 0.14 87 1011.4